Tracking 27124 objects as of 1-Apr-2023
HD Live streaming from Space Station
objects crossing your sky now

YAOGAN-30 P

Track YAOGAN-30 P now!
10-day predictions


NORAD ID: 44450
Int'l Code: 2019-045B
Perigee: 592.0 km
Apogee: 606.4 km
Inclination: 35.0 °
Period: 96.5 minutes
Semi major axis: 6970 km
RCS: Unknown
Launch date: July 26, 2019
Source: People's Republic of China (PRC)
Launch site: Xichang Space Center, China (XSC)
Your satellite tracking list
Your tracking list is empty




NASA's NSSDC Master Catalog

Two Line Element Set (TLE):
1 44450U 19045B   23090.84523497  .00004578  00000-0  44664-3 0  9993
2 44450  34.9962 221.3871 0010302 325.5809  34.4229 14.91875158200694
Source of the keplerian elements: AFSPC